Location: Passau
(48.5830°N, 13.4830°E)
Time: 19:13:28
(UTC+02:00)

Envisat - Pass Details

Date: 22 April 2024
Orbit: 762 x 764 km, 98.3° (Epoch: 29 May)

Event Time Altitude Azimuth Distance (km) Brightness Sun altitude
Rises 03:02:07 0° 30° (NNE) 3,239 7.7 -23.8°
Reaches altitude 10° 03:05:40 10° 56° (NE) 2,306 6.4 -23.5°
Maximum altitude 03:08:14 14° 87° (E) 2,042 5.6 -23.2°
Drops below altitude 10° 03:10:48 10° 118° (ESE) 2,296 5.5 -23.0°
Enters shadow 03:13:31 - 139° (SE) 2,978 5.9 -22.8°
